Regional Weather Roundup
Issued by NWS Goodland, KS

Home | Current Version | Previous Version | Text Only | Print | Product List | Glossary On
Versions: 1 2 3 4 5 6 7 8 9 10 11 12 13 14 15 16 17 18 19 20 21 22 23 24 25 26 27 28 29 30 31 32 33 34 35 36 37 38 39 40 41 42 43 44 45 46 47 48 49 50
000
ASUS43 KGLD 280808
RWRGLD

GOODLAND FORECAST AREA HOURLY WEATHER ROUNDUP
NATIONAL WEATHER SERVICE GOODLAND KS
200 AM MDT FRI AUG 28 2015

...OFFICIAL OBSERVATIONS...

CITY           SKY/WX    TMP DP  RH WIND       PRES   REMARKS
GOODLAND KS    CLEAR     64  59  83 NW10      30.03S
HILL CITY KS   CLOUDY    74  64  71 W5        29.91S
IMPERIAL NEB   CLEAR     64  58  80 NW9       29.99F
MCCOOK NEB     CLEAR     68  63  84 W10       29.93S
AKRON CO       PTCLDY    59  57  93 W8        30.12R
BURLINGTON CO  CLEAR     63  57  81 NW9       30.09S
LIMON CO       CLEAR     57  55  93 NW3       30.17S
$$

...UNOFFICIAL OBSERVATIONS...

CITY           SKY/WX    TMP DP  RH WIND       PRES   REMARKS
COLBY KS       CLEAR     66  63  88 NW7       30.00F
GOVE KS          N/A     71  32  23 MISG        N/A
LENORA KS        N/A     71  32  23 MISG        N/A
NORTON KS      CLEAR     68  61  77 W7        29.89S
SHARON SPRINGS   N/A     68  62  79 N6          N/A
KIT CARSON CO    N/A     61  56  83 MISG        N/A
YUMA CO          N/A     58  55  90 CALM        N/A
$$


USA.gov is the U.S. government's official web portal to all federal, state and local government web resources and services.